Time,TemperatureF,DewpointF,PressureIn,WindDirection,WindDirectionDegrees,WindSpeedMPH,WindSpeedGustMPH,Humidity,HourlyPrecipIn,Conditions,Clouds,dailyrainin,SoftwareType,DateUTC
2013-11-07 00:01:00,55.4,53.7,29.91,SW,225,4.0,4.0,94,0.04,,---,0.00,VWS V14.01,2013-11-07 05:01:00,
2013-11-07 00:02:00,55.4,53.7,29.91,SW,225,4.0,4.0,94,0.04,,---,0.00,VWS V14.01,2013-11-07 05:02:00,
2013-11-07 00:06:00,55.4,53.7,29.91,SW,225,4.0,4.0,94,0.04,,---,0.00,VWS V14.01,2013-11-07 05:06:00,
2013-11-07 00:11:00,55.4,53.7,29.91,NNW,338,2.2,4.0,94,0.09,,---,0.05,VWS V14.01,2013-11-07 05:11:00,
2013-11-07 00:16:00,55.4,53.7,29.91,WSW,248,6.3,6.3,94,0.09,,---,0.05,VWS V14.01,2013-11-07 05:16:00,
2013-11-07 00:21:00,55.4,53.7,29.91,South,180,4.0,6.3,94,0.09,,---,0.05,VWS V14.01,2013-11-07 05:21:00,
2013-11-07 00:26:00,54.1,52.7,29.91,WNW,292,6.3,8.1,95,0.09,,---,0.05,VWS V14.01,2013-11-07 05:26:00,
2013-11-07 00:31:00,53.1,51.7,29.91,North,0,4.9,8.7,95,0.09,,---,0.05,VWS V14.01,2013-11-07 05:31:00,
2013-11-07 00:36:00,52.3,51.2,29.91,South,180,4.0,8.7,96,0.09,,---,0.05,VWS V14.01,2013-11-07 05:36:00,
2013-11-07 00:41:00,51.6,50.8,29.91,SSE,158,5.4,8.7,97,0.09,,---,0.05,VWS V14.01,2013-11-07 05:41:00,
2013-11-07 00:46:00,51.4,50.6,29.91,West,270,2.7,8.7,97,0.09,,---,0.05,VWS V14.01,2013-11-07 05:46:00,
2013-11-07 00:51:00,51.3,50.4,29.91,NNW,338,4.0,8.7,97,0.13,,---,0.09,VWS V14.01,2013-11-07 05:51:00,
2013-11-07 00:56:00,51.3,50.4,29.91,SW,225,6.3,8.7,97,0.13,,---,0.09,VWS V14.01,2013-11-07 05:56:00,
2013-11-07 01:01:00,51.1,50.3,29.91,East,90,2.2,3.6,97,0.09,,---,0.09,VWS V14.01,2013-11-07 06:01:00,
2013-11-07 01:06:00,50.5,49.5,29.91,SSW,202,3.1,8.1,96,0.09,,---,0.09,VWS V14.01,2013-11-07 06:06:00,
2013-11-07 01:11:00,49.6,48.8,29.91,West,270,3.6,8.1,97,0.13,,---,0.13,VWS V14.01,2013-11-07 06:11:00,
2013-11-07 01:16:00,49.1,48.3,29.91,North,0,0.0,8.1,97,0.13,,---,0.13,VWS V14.01,2013-11-07 06:16:00,
2013-11-07 01:21:00,48.7,47.9,29.91,West,270,7.6,8.1,97,0.17,,---,0.17,VWS V14.01,2013-11-07 06:21:00,
2013-11-07 01:26:00,48.6,47.8,29.94,SW,225,3.1,8.1,97,0.17,,---,0.17,VWS V14.01,2013-11-07 06:26:00,
2013-11-07 01:31:00,48.6,47.8,29.94,West,270,5.4,8.3,97,0.17,,---,0.17,VWS V14.01,2013-11-07 06:31:00,
2013-11-07 01:36:00,48.6,47.8,29.94,WNW,292,4.0,8.3,97,0.17,,---,0.17,VWS V14.01,2013-11-07 06:36:00,
2013-11-07 01:41:00,48.4,47.6,29.94,SE,135,3.6,8.3,97,0.17,,---,0.17,VWS V14.01,2013-11-07 06:41:00,
2013-11-07 01:46:00,48.4,47.3,29.94,NE,45,3.1,8.3,96,0.21,,---,0.21,VWS V14.01,2013-11-07 06:46:00,
2013-11-07 01:51:00,48.0,47.2,29.94,NNW,338,0.0,8.3,97,0.21,,---,0.21,VWS V14.01,2013-11-07 06:51:00,
2013-11-07 01:56:00,47.7,46.8,29.94,SW,225,3.1,8.3,97,0.21,,---,0.21,VWS V14.01,2013-11-07 06:56:00,
2013-11-07 02:01:00,47.1,46.3,29.94,South,180,2.7,2.7,97,0.12,,---,0.21,VWS V14.01,2013-11-07 07:01:00,
2013-11-07 02:06:00,46.8,46.0,29.94,NNW,338,3.6,5.4,97,0.12,,---,0.21,VWS V14.01,2013-11-07 07:06:00,
2013-11-07 02:11:00,46.4,45.6,29.94,West,270,0.0,6.3,97,0.16,,---,0.25,VWS V14.01,2013-11-07 07:11:00,
2013-11-07 02:16:00,46.2,45.7,29.94,SW,225,2.2,6.3,98,0.16,,---,0.25,VWS V14.01,2013-11-07 07:16:00,
2013-11-07 02:21:00,46.0,45.5,29.94,NW,315,0.0,10.5,98,0.16,,---,0.25,VWS V14.01,2013-11-07 07:21:00,
2013-11-07 02:26:00,45.9,45.3,29.94,North,0,5.4,10.5,98,0.16,,---,0.25,VWS V14.01,2013-11-07 07:26:00,
2013-11-07 02:31:00,45.9,45.3,29.94,NW,315,2.2,10.5,98,0.16,,---,0.25,VWS V14.01,2013-11-07 07:31:00,
2013-11-07 02:36:00,45.7,45.2,29.94,WNW,292,2.7,10.5,98,0.16,,---,0.25,VWS V14.01,2013-11-07 07:36:00,
2013-11-07 02:41:00,45.5,45.0,29.94,SE,135,2.2,10.5,98,0.16,,---,0.25,VWS V14.01,2013-11-07 07:41:00,
2013-11-07 02:46:00,45.3,44.8,29.94,NW,315,0.0,10.5,98,0.16,,---,0.25,VWS V14.01,2013-11-07 07:46:00,
2013-11-07 02:51:00,45.3,44.8,29.94,North,0,2.7,10.5,98,0.16,,---,0.25,VWS V14.01,2013-11-07 07:51:00,
2013-11-07 02:56:00,45.3,44.8,29.94,North,0,0.0,10.5,98,0.16,,---,0.25,VWS V14.01,2013-11-07 07:56:00,
2013-11-07 03:01:00,45.1,44.6,29.94,West,270,0.0,4.9,98,0.08,,---,0.29,VWS V14.01,2013-11-07 08:01:00,
2013-11-07 03:06:00,45.1,44.6,29.94,North,0,0.0,4.9,98,0.08,,---,0.29,VWS V14.01,2013-11-07 08:06:00,
2013-11-07 03:11:00,45.1,44.6,29.94,NNW,338,4.5,4.9,98,0.08,,---,0.29,VWS V14.01,2013-11-07 08:11:00,
2013-11-07 03:16:00,45.1,44.6,29.94,West,270,0.0,7.2,98,0.08,,---,0.29,VWS V14.01,2013-11-07 08:16:00,
2013-11-07 03:21:00,45.1,44.6,29.94,West,270,3.1,7.2,98,0.08,,---,0.29,VWS V14.01,2013-11-07 08:21:00,
2013-11-07 03:26:00,45.1,44.6,29.94,NNW,338,6.3,7.2,98,0.08,,---,0.29,VWS V14.01,2013-11-07 08:26:00,
2013-11-07 03:31:00,45.1,44.6,29.94,ENE,68,2.7,7.2,98,0.08,,---,0.29,VWS V14.01,2013-11-07 08:31:00,
2013-11-07 03:36:00,45.1,44.6,29.94,North,0,4.0,7.2,98,0.08,,---,0.29,VWS V14.01,2013-11-07 08:36:00,
2013-11-07 03:41:00,45.1,44.6,29.94,South,180,4.0,7.2,98,0.12,,---,0.33,VWS V14.01,2013-11-07 08:41:00,
2013-11-07 03:46:00,45.1,44.6,29.94,South,180,3.6,7.2,98,0.12,,---,0.33,VWS V14.01,2013-11-07 08:46:00,
2013-11-07 03:51:00,44.8,44.2,29.94,North,0,3.1,7.2,98,0.12,,---,0.33,VWS V14.01,2013-11-07 08:51:00,
2013-11-07 03:56:00,44.6,44.1,29.97,NW,315,2.2,7.2,98,0.12,,---,0.33,VWS V14.01,2013-11-07 08:56:00,
2013-11-07 04:01:00,44.4,43.9,29.97,SW,225,2.2,4.5,98,0.08,,---,0.33,VWS V14.01,2013-11-07 09:01:00,
2013-11-07 04:06:00,44.2,43.7,29.97,SSW,202,2.7,4.5,98,0.08,,---,0.33,VWS V14.01,2013-11-07 09:06:00,
2013-11-07 04:11:00,44.1,43.5,29.97,West,270,0.0,8.3,98,0.08,,---,0.33,VWS V14.01,2013-11-07 09:11:00,
2013-11-07 04:16:00,44.1,43.5,29.97,NW,315,4.0,8.3,98,0.08,,---,0.33,VWS V14.01,2013-11-07 09:16:00,
2013-11-07 04:21:00,43.9,43.3,29.97,NNW,338,0.0,8.3,98,0.08,,---,0.33,VWS V14.01,2013-11-07 09:21:00,
2013-11-07 04:26:00,43.7,43.2,29.94,SW,225,0.0,8.3,98,0.08,,---,0.33,VWS V14.01,2013-11-07 09:26:00,
2013-11-07 04:31:00,43.7,43.2,29.94,NW,315,3.1,8.3,98,0.08,,---,0.33,VWS V14.01,2013-11-07 09:31:00,
2013-11-07 04:36:00,43.7,43.2,29.94,SW,225,0.0,8.3,98,0.08,,---,0.33,VWS V14.01,2013-11-07 09:36:00,
2013-11-07 04:41:00,43.7,43.2,29.97,North,0,0.0,8.3,98,0.08,,---,0.33,VWS V14.01,2013-11-07 09:41:00,
2013-11-07 04:46:00,43.9,43.3,29.97,NW,315,3.1,8.3,98,0.08,,---,0.33,VWS V14.01,2013-11-07 09:46:00,
2013-11-07 04:51:00,43.9,43.3,29.97,West,270,2.7,8.3,98,0.08,,---,0.33,VWS V14.01,2013-11-07 09:51:00,
2013-11-07 04:56:00,43.7,43.2,29.97,NNW,338,3.1,8.3,98,0.08,,---,0.33,VWS V14.01,2013-11-07 09:56:00,
2013-11-07 05:01:00,43.7,43.2,29.97,WSW,248,0.0,3.1,98,0.00,,---,0.33,VWS V14.01,2013-11-07 10:01:00,
2013-11-07 05:06:00,43.5,43.0,29.97,West,270,0.0,9.2,98,0.00,,---,0.33,VWS V14.01,2013-11-07 10:06:00,
2013-11-07 05:11:00,43.5,43.0,29.97,SE,135,2.7,9.2,98,0.00,,---,0.33,VWS V14.01,2013-11-07 10:11:00,
2013-11-07 05:16:00,43.5,43.0,29.97,SSE,158,0.0,9.2,98,0.00,,---,0.33,VWS V14.01,2013-11-07 10:16:00,
2013-11-07 05:21:00,43.5,43.0,29.97,West,270,2.7,9.2,98,0.00,,---,0.33,VWS V14.01,2013-11-07 10:21:00,
2013-11-07 05:26:00,43.7,43.2,29.97,North,0,2.2,9.2,98,0.00,,---,0.33,VWS V14.01,2013-11-07 10:26:00,
2013-11-07 05:31:00,43.5,43.0,29.97,NW,315,5.4,9.2,98,0.00,,---,0.33,VWS V14.01,2013-11-07 10:31:00,
2013-11-07 05:36:00,43.3,42.8,29.97,West,270,3.6,9.2,98,0.00,,---,0.33,VWS V14.01,2013-11-07 10:36:00,
2013-11-07 05:41:00,43.3,42.5,29.97,West,270,0.0,9.2,97,0.00,,---,0.33,VWS V14.01,2013-11-07 10:41:00,
2013-11-07 05:46:00,43.5,42.5,29.97,South,180,3.6,9.2,96,0.00,,---,0.33,VWS V14.01,2013-11-07 10:46:00,
2013-11-07 05:51:00,43.2,41.8,29.97,SE,135,0.0,9.2,95,0.00,,---,0.33,VWS V14.01,2013-11-07 10:51:00,
2013-11-07 05:56:00,43.2,41.5,30.00,West,270,2.7,9.2,94,0.00,,---,0.33,VWS V14.01,2013-11-07 10:56:00,
2013-11-07 06:01:00,43.3,41.2,30.00,South,180,0.0,4.0,92,0.00,,---,0.33,VWS V14.01,2013-11-07 11:01:00,
2013-11-07 06:06:00,43.3,40.9,30.00,West,270,2.7,8.7,91,0.00,,---,0.33,VWS V14.01,2013-11-07 11:06:00,
2013-11-07 06:11:00,43.5,39.9,29.97,West,270,2.2,8.7,87,0.00,,---,0.33,VWS V14.01,2013-11-07 11:11:00,
2013-11-07 06:16:00,43.3,39.7,29.97,ESE,112,4.9,8.7,87,0.00,,---,0.33,VWS V14.01,2013-11-07 11:16:00,
2013-11-07 06:21:00,43.3,39.4,29.97,SSE,158,0.0,8.7,86,0.00,,---,0.33,VWS V14.01,2013-11-07 11:21:00,
2013-11-07 06:26:00,43.3,39.4,30.00,NE,45,3.1,8.7,86,0.00,,---,0.33,VWS V14.01,2013-11-07 11:26:00,
2013-11-07 06:31:00,43.3,39.4,30.00,NNE,22,0.0,8.7,86,0.00,,---,0.33,VWS V14.01,2013-11-07 11:31:00,
2013-11-07 06:34:00,43.2,39.3,30.00,South,180,2.7,8.7,86,0.00,,---,0.33,VWS V14.01,2013-11-07 11:34:00,
2013-11-07 06:39:00,43.0,39.1,30.00,NNW,338,3.1,8.7,86,0.00,,---,0.33,VWS V14.01,2013-11-07 11:39:00,
2013-11-07 06:44:00,43.0,38.5,30.00,NW,315,0.0,8.7,84,0.00,,---,0.33,VWS V14.01,2013-11-07 11:44:00,
2013-11-07 06:49:00,42.8,38.0,30.00,NE,45,2.7,8.7,83,0.00,,---,0.33,VWS V14.01,2013-11-07 11:49:00,
2013-11-07 06:54:00,42.6,37.8,30.00,WNW,292,5.8,8.7,83,0.00,,---,0.33,VWS V14.01,2013-11-07 11:54:00,
2013-11-07 06:59:00,42.8,37.1,30.00,SW,225,0.0,11.4,80,0.00,,---,0.33,VWS V14.01,2013-11-07 11:59:00,
2013-11-07 07:04:00,42.4,37.0,30.00,NW,315,2.7,4.9,81,0.00,,---,0.33,VWS V14.01,2013-11-07 12:04:00,
2013-11-07 07:09:00,42.4,36.7,30.00,East,90,3.6,8.1,80,0.00,,---,0.33,VWS V14.01,2013-11-07 12:09:00,
2013-11-07 07:14:00,42.4,36.4,30.00,NE,45,3.6,8.1,79,0.00,,---,0.33,VWS V14.01,2013-11-07 12:14:00,
2013-11-07 07:19:00,42.4,36.4,30.00,NW,315,2.7,8.1,79,0.00,,---,0.33,VWS V14.01,2013-11-07 12:19:00,
2013-11-07 07:24:00,42.4,36.1,30.03,NW,315,3.6,8.1,78,0.00,,---,0.33,VWS V14.01,2013-11-07 12:24:00,
2013-11-07 07:29:00,42.3,35.6,30.03,NW,315,3.1,8.7,77,0.00,,---,0.33,VWS V14.01,2013-11-07 12:29:00,
2013-11-07 07:34:00,42.3,35.6,30.03,WNW,292,3.1,10.5,77,0.00,,---,0.33,VWS V14.01,2013-11-07 12:34:00,
2013-11-07 07:38:00,42.1,35.1,30.00,NE,45,2.7,10.5,76,0.00,,---,0.33,VWS V14.01,2013-11-07 12:38:00,
2013-11-07 07:43:00,41.5,35.2,30.00,SW,225,3.6,10.5,78,0.00,,---,0.33,VWS V14.01,2013-11-07 12:43:00,
2013-11-07 07:48:00,41.2,35.5,30.00,SW,225,0.0,10.5,80,0.00,,---,0.33,VWS V14.01,2013-11-07 12:48:00,
2013-11-07 07:53:00,41.0,35.6,30.03,NE,45,0.0,10.5,81,0.00,,---,0.33,VWS V14.01,2013-11-07 12:53:00,
2013-11-07 07:58:00,40.8,36.1,30.03,West,270,3.1,10.5,83,0.00,,---,0.33,VWS V14.01,2013-11-07 12:58:00,
2013-11-07 08:03:00,40.8,36.1,30.03,South,180,0.0,5.4,83,0.00,,---,0.33,VWS V14.01,2013-11-07 13:03:00,
2013-11-07 08:08:00,40.8,36.4,30.03,West,270,0.0,5.4,84,0.00,,---,0.33,VWS V14.01,2013-11-07 13:08:00,
2013-11-07 08:13:00,40.8,36.7,30.03,North,0,3.1,6.3,85,0.00,,---,0.33,VWS V14.01,2013-11-07 13:13:00,
2013-11-07 08:18:00,40.8,36.7,30.03,NW,315,0.0,6.3,85,0.00,,---,0.33,VWS V14.01,2013-11-07 13:18:00,
2013-11-07 08:23:00,40.6,36.8,30.03,WNW,292,0.0,6.3,86,0.00,,---,0.33,VWS V14.01,2013-11-07 13:23:00,
2013-11-07 08:28:00,40.6,36.8,30.03,West,270,5.4,6.3,86,0.00,,---,0.33,VWS V14.01,2013-11-07 13:28:00,
2013-11-07 08:33:00,40.8,37.3,30.03,South,180,0.0,6.3,87,0.00,,---,0.33,VWS V14.01,2013-11-07 13:33:00,
2013-11-07 08:38:00,41.0,37.7,30.03,South,180,2.2,6.3,88,0.00,,---,0.33,VWS V14.01,2013-11-07 13:38:00,
2013-11-07 08:43:00,41.0,37.7,30.03,WSW,248,0.0,6.3,88,0.00,,---,0.33,VWS V14.01,2013-11-07 13:43:00,
2013-11-07 08:48:00,41.4,38.4,30.03,NNE,22,0.0,6.3,89,0.00,,---,0.33,VWS V14.01,2013-11-07 13:48:00,
2013-11-07 08:53:00,41.5,38.5,30.03,North,0,2.7,6.3,89,0.00,,---,0.33,VWS V14.01,2013-11-07 13:53:00,
2013-11-07 08:58:00,41.5,38.3,30.03,South,180,4.0,6.3,88,0.00,,---,0.33,VWS V14.01,2013-11-07 13:58:00,
2013-11-07 09:03:00,41.5,38.3,30.03,North,0,3.1,5.8,88,0.00,,---,0.33,VWS V14.01,2013-11-07 14:03:00,
2013-11-07 09:08:00,41.5,38.3,30.03,NE,45,2.7,5.8,88,0.00,,---,0.33,VWS V14.01,2013-11-07 14:08:00,
2013-11-07 09:13:00,41.5,38.3,30.03,NW,315,0.0,5.8,88,0.00,,---,0.33,VWS V14.01,2013-11-07 14:13:00,
2013-11-07 09:18:00,41.7,38.1,30.03,NW,315,0.0,5.8,87,0.00,,---,0.33,VWS V14.01,2013-11-07 14:18:00,
2013-11-07 09:23:00,41.9,38.3,30.03,NE,45,3.1,5.8,87,0.00,,---,0.33,VWS V14.01,2013-11-07 14:23:00,
2013-11-07 09:28:00,41.9,38.3,30.03,NW,315,3.6,5.8,87,0.00,,---,0.33,VWS V14.01,2013-11-07 14:28:00,
2013-11-07 09:33:00,41.7,37.8,30.03,NW,315,6.3,6.7,86,0.00,,---,0.33,VWS V14.01,2013-11-07 14:33:00,
2013-11-07 09:38:00,41.9,36.5,30.03,SW,225,0.0,8.3,81,0.00,,---,0.33,VWS V14.01,2013-11-07 14:38:00,
2013-11-07 09:43:00,41.9,35.2,30.03,SE,135,3.1,8.3,77,0.00,,---,0.33,VWS V14.01,2013-11-07 14:43:00,
2013-11-07 09:48:00,42.1,33.7,30.03,West,270,2.7,8.3,72,0.00,,---,0.33,VWS V14.01,2013-11-07 14:48:00,
2013-11-07 09:53:00,42.4,33.0,30.06,South,180,4.9,11.4,69,0.00,,---,0.33,VWS V14.01,2013-11-07 14:53:00,
2013-11-07 09:58:00,42.6,32.8,30.06,West,270,7.2,11.4,68,0.00,,---,0.33,VWS V14.01,2013-11-07 14:58:00,
2013-11-07 10:03:00,42.8,31.5,30.06,NW,315,0.0,4.0,64,0.00,,---,0.33,VWS V14.01,2013-11-07 15:03:00,
2013-11-07 10:08:00,42.8,31.1,30.06,SSE,158,4.5,5.8,63,0.00,,---,0.33,VWS V14.01,2013-11-07 15:08:00,
2013-11-07 10:13:00,42.8,30.3,30.06,South,180,3.1,5.8,61,0.00,,---,0.33,VWS V14.01,2013-11-07 15:13:00,
2013-11-07 10:18:00,42.8,29.9,30.06,West,270,4.5,6.3,60,0.00,,---,0.33,VWS V14.01,2013-11-07 15:18:00,
2013-11-07 10:23:00,42.8,31.9,30.06,NW,315,4.0,6.3,65,0.00,,---,0.33,VWS V14.01,2013-11-07 15:23:00,
2013-11-07 10:28:00,41.9,32.1,30.06,NNW,338,5.8,8.3,68,0.00,,---,0.33,VWS V14.01,2013-11-07 15:28:00,
2013-11-07 10:33:00,41.7,33.0,30.06,NNW,338,0.0,8.3,71,0.00,,---,0.33,VWS V14.01,2013-11-07 15:33:00,
2013-11-07 10:38:00,41.7,33.4,30.06,WNW,292,0.0,8.3,72,0.00,,---,0.33,VWS V14.01,2013-11-07 15:38:00,
2013-11-07 10:43:00,41.7,33.4,30.06,East,90,6.3,8.3,72,0.00,,---,0.33,VWS V14.01,2013-11-07 15:43:00,
2013-11-07 10:48:00,41.7,33.4,30.06,North,0,4.9,8.3,72,0.00,,---,0.33,VWS V14.01,2013-11-07 15:48:00,
2013-11-07 10:53:00,41.7,33.4,30.06,SW,225,2.7,8.3,72,0.00,,---,0.33,VWS V14.01,2013-11-07 15:53:00,
2013-11-07 10:58:00,43.2,31.4,30.06,North,0,2.7,8.3,63,0.00,,---,0.33,VWS V14.01,2013-11-07 15:58:00,
2013-11-07 11:03:00,44.2,29.1,30.06,NNW,338,0.0,6.7,55,0.00,,---,0.33,VWS V14.01,2013-11-07 16:03:00,
2013-11-07 11:08:00,46.0,30.3,30.06,North,0,4.0,6.7,54,0.00,,---,0.33,VWS V14.01,2013-11-07 16:08:00,
2013-11-07 11:13:00,46.9,28.3,30.06,NW,315,4.9,8.3,48,0.00,,---,0.33,VWS V14.01,2013-11-07 16:13:00,
2013-11-07 11:18:00,48.0,15.6,30.06,West,270,2.7,8.3,27,0.00,,---,0.33,VWS V14.01,2013-11-07 16:18:00,
2013-11-07 11:23:00,48.6,10.4,30.06,North,0,6.7,9.6,21,0.00,,---,0.33,VWS V14.01,2013-11-07 16:23:00,
2013-11-07 11:28:00,48.6,10.4,30.06,SW,225,4.0,9.6,21,0.00,,---,0.33,VWS V14.01,2013-11-07 16:28:00,
2013-11-07 11:33:00,47.8,10.9,30.06,NW,315,5.4,9.6,22,0.00,,---,0.33,VWS V14.01,2013-11-07 16:33:00,
2013-11-07 11:38:00,46.8,9.9,30.06,West,270,2.7,9.6,22,0.00,,---,0.33,VWS V14.01,2013-11-07 16:38:00,
2013-11-07 11:43:00,46.9,10.1,30.06,North,0,3.1,9.6,22,0.00,,---,0.33,VWS V14.01,2013-11-07 16:43:00,
2013-11-07 11:48:00,46.8,9.9,30.06,West,270,3.6,9.6,22,0.00,,---,0.33,VWS V14.01,2013-11-07 16:48:00,
2013-11-07 11:53:00,46.2,9.5,30.06,West,270,4.9,9.6,22,0.00,,---,0.33,VWS V14.01,2013-11-07 16:53:00,
2013-11-07 11:58:00,45.9,9.2,30.06,SW,225,0.0,9.6,22,0.00,,---,0.33,VWS V14.01,2013-11-07 16:58:00,
2013-11-07 12:03:00,45.3,8.7,30.06,NNW,338,2.7,6.3,22,0.00,,---,0.33,VWS V14.01,2013-11-07 17:03:00,
2013-11-07 12:08:00,44.8,8.3,30.06,West,270,7.6,7.6,22,0.00,,---,0.33,VWS V14.01,2013-11-07 17:08:00,
2013-11-07 12:13:00,44.6,11.0,30.06,NW,315,2.7,7.6,25,0.00,,---,0.33,VWS V14.01,2013-11-07 17:13:00,
2013-11-07 12:18:00,44.2,14.0,30.06,SW,225,2.7,9.6,29,0.00,,---,0.33,VWS V14.01,2013-11-07 17:18:00,
2013-11-07 12:23:00,44.1,16.1,30.06,West,270,8.1,9.6,32,0.00,,---,0.33,VWS V14.01,2013-11-07 17:23:00,
2013-11-07 12:28:00,43.5,17.7,30.06,NW,315,0.0,9.6,35,0.00,,---,0.33,VWS V14.01,2013-11-07 17:28:00,
2013-11-07 12:33:00,43.7,19.1,30.06,West,270,5.4,9.6,37,0.00,,---,0.33,VWS V14.01,2013-11-07 17:33:00,
2013-11-07 12:38:00,43.5,20.2,30.03,East,90,0.0,9.6,39,0.00,,---,0.33,VWS V14.01,2013-11-07 17:38:00,
2013-11-07 12:43:00,42.6,21.7,30.03,NW,315,0.0,9.6,43,0.00,,---,0.33,VWS V14.01,2013-11-07 17:43:00,
2013-11-07 12:48:00,42.4,22.6,30.03,NW,315,0.0,9.6,45,0.00,,---,0.33,VWS V14.01,2013-11-07 17:48:00,
2013-11-07 12:53:00,41.9,22.6,30.03,North,0,0.0,9.6,46,0.00,,---,0.33,VWS V14.01,2013-11-07 17:53:00,
2013-11-07 12:58:00,42.1,23.3,30.03,North,0,0.0,9.6,47,0.00,,---,0.33,VWS V14.01,2013-11-07 17:58:00,
2013-11-07 13:03:00,41.7,23.0,30.03,North,0,0.0,0.0,47,0.00,,---,0.33,VWS V14.01,2013-11-07 18:03:00,
2013-11-07 13:08:00,41.5,23.3,30.03,SSW,202,2.7,2.7,48,0.00,,---,0.33,VWS V14.01,2013-11-07 18:08:00,
2013-11-07 13:13:00,41.5,23.8,30.03,NW,315,0.0,3.1,49,0.00,,---,0.33,VWS V14.01,2013-11-07 18:13:00,
2013-11-07 13:18:00,41.4,24.1,30.03,SW,225,4.9,4.9,50,0.00,,---,0.33,VWS V14.01,2013-11-07 18:18:00,
2013-11-07 13:23:00,41.2,24.9,30.03,West,270,0.0,4.9,52,0.00,,---,0.33,VWS V14.01,2013-11-07 18:23:00,
2013-11-07 13:28:00,41.0,26.1,30.03,NW,315,0.0,5.8,55,0.00,,---,0.33,VWS V14.01,2013-11-07 18:28:00,
2013-11-07 13:33:00,40.5,28.9,30.03,West,270,4.0,5.8,63,0.00,,---,0.33,VWS V14.01,2013-11-07 18:33:00,
2013-11-07 13:38:00,40.1,31.5,30.06,SW,225,3.6,8.1,71,0.00,,---,0.33,VWS V14.01,2013-11-07 18:38:00,
2013-11-07 13:43:00,39.9,33.0,30.06,West,270,0.0,8.1,76,0.00,,---,0.33,VWS V14.01,2013-11-07 18:43:00,
2013-11-07 13:48:00,39.9,34.6,30.06,West,270,0.0,8.1,81,0.05,,---,0.38,VWS V14.01,2013-11-07 18:48:00,
2013-11-07 13:53:00,39.7,35.6,30.03,SW,225,0.0,8.1,85,0.05,,---,0.38,VWS V14.01,2013-11-07 18:53:00,
2013-11-07 13:58:00,39.7,36.2,30.03,NNE,22,0.0,8.1,87,0.05,,---,0.38,VWS V14.01,2013-11-07 18:58:00,
2013-11-07 14:03:00,39.9,36.7,30.03,SSW,202,3.1,6.3,88,0.05,,---,0.38,VWS V14.01,2013-11-07 19:03:00,
2013-11-07 14:08:00,39.9,37.2,30.03,SW,225,5.4,6.3,90,0.05,,---,0.38,VWS V14.01,2013-11-07 19:08:00,
2013-11-07 14:13:00,39.7,37.3,30.03,South,180,3.6,6.3,91,0.05,,---,0.38,VWS V14.01,2013-11-07 19:13:00,
2013-11-07 14:18:00,39.4,37.2,30.03,SW,225,2.2,7.6,92,0.05,,---,0.38,VWS V14.01,2013-11-07 19:18:00,
2013-11-07 14:23:00,39.2,37.1,30.06,SW,225,3.1,10.5,92,0.05,,---,0.38,VWS V14.01,2013-11-07 19:23:00,
2013-11-07 14:28:00,38.8,36.7,30.06,SW,225,3.1,10.5,92,0.05,,---,0.38,VWS V14.01,2013-11-07 19:28:00,
2013-11-07 14:33:00,38.7,36.5,30.06,West,270,3.1,10.5,92,0.05,,---,0.38,VWS V14.01,2013-11-07 19:33:00,
2013-11-07 14:38:00,38.8,36.7,30.03,South,180,2.7,10.5,92,0.05,,---,0.38,VWS V14.01,2013-11-07 19:38:00,
2013-11-07 14:43:00,38.8,36.4,30.03,SW,225,2.7,10.5,91,0.05,,---,0.38,VWS V14.01,2013-11-07 19:43:00,
2013-11-07 14:48:00,38.8,36.2,30.03,WNW,292,3.1,10.5,90,0.05,,---,0.38,VWS V14.01,2013-11-07 19:48:00,
2013-11-07 14:53:00,39.2,35.7,30.06,South,180,4.0,10.5,87,0.05,,---,0.38,VWS V14.01,2013-11-07 19:53:00,
2013-11-07 14:58:00,39.2,34.2,30.06,SW,225,0.0,10.5,82,0.05,,---,0.38,VWS V14.01,2013-11-07 19:58:00,
2013-11-07 15:03:00,39.4,32.1,30.06,SW,225,5.4,7.6,75,0.00,,---,0.38,VWS V14.01,2013-11-07 20:03:00,
2013-11-07 15:08:00,39.7,30.1,30.03,WNW,292,3.6,8.3,68,0.00,,---,0.38,VWS V14.01,2013-11-07 20:08:00,
2013-11-07 15:12:00,41.0,29.0,30.03,SW,225,4.0,8.3,62,0.00,,---,0.38,VWS V14.01,2013-11-07 20:12:00,
2013-11-07 15:17:00,41.5,26.1,30.03,WNW,292,3.1,8.3,54,0.00,,---,0.38,VWS V14.01,2013-11-07 20:17:00,
2013-11-07 15:22:00,41.7,24.5,30.03,SW,225,0.0,8.3,50,0.00,,---,0.38,VWS V14.01,2013-11-07 20:22:00,
2013-11-07 15:27:00,41.5,23.3,30.03,West,270,6.3,8.3,48,0.00,,---,0.38,VWS V14.01,2013-11-07 20:27:00,
2013-11-07 15:32:00,40.6,21.5,30.03,West,270,6.3,12.3,46,0.00,,---,0.38,VWS V14.01,2013-11-07 20:32:00,
2013-11-07 15:37:00,40.1,20.0,30.06,SW,225,4.9,12.3,44,0.00,,---,0.38,VWS V14.01,2013-11-07 20:37:00,
2013-11-07 15:42:00,39.9,19.2,30.06,SW,225,0.0,12.3,43,0.00,,---,0.38,VWS V14.01,2013-11-07 20:42:00,
2013-11-07 15:47:00,39.7,19.1,30.06,NW,315,9.2,12.3,43,0.00,,---,0.38,VWS V14.01,2013-11-07 20:47:00,
2013-11-07 15:52:00,39.7,19.1,30.06,SW,225,3.1,12.3,43,0.00,,---,0.38,VWS V14.01,2013-11-07 20:52:00,
2013-11-07 15:57:00,39.7,18.0,30.06,SW,225,3.6,12.3,41,0.00,,---,0.38,VWS V14.01,2013-11-07 20:57:00,
2013-11-07 16:02:00,39.6,17.2,30.06,WSW,248,3.1,8.3,40,0.00,,---,0.38,VWS V14.01,2013-11-07 21:02:00,
2013-11-07 16:07:00,39.6,16.7,30.06,South,180,2.2,10.1,39,0.00,,---,0.38,VWS V14.01,2013-11-07 21:07:00,
2013-11-07 16:13:00,39.6,16.7,30.06,SW,225,4.0,10.1,39,0.00,,---,0.38,VWS V14.01,2013-11-07 21:13:00,
2013-11-07 16:18:00,39.6,16.7,30.06,NNE,22,5.8,10.1,39,0.00,,---,0.38,VWS V14.01,2013-11-07 21:18:00,
2013-11-07 16:23:00,39.6,16.7,30.06,North,0,3.6,10.1,39,0.00,,---,0.38,VWS V14.01,2013-11-07 21:23:00,
2013-11-07 16:28:00,39.4,16.5,30.06,North,0,3.1,10.1,39,0.00,,---,0.38,VWS V14.01,2013-11-07 21:28:00,
2013-11-07 16:33:00,39.4,16.5,30.06,NW,315,3.6,10.1,39,0.00,,---,0.38,VWS V14.01,2013-11-07 21:33:00,
2013-11-07 16:38:00,39.4,15.9,30.06,West,270,4.0,10.1,38,0.00,,---,0.38,VWS V14.01,2013-11-07 21:38:00,
2013-11-07 16:43:00,39.7,16.2,30.06,WSW,248,4.0,10.1,38,0.00,,---,0.38,VWS V14.01,2013-11-07 21:43:00,
2013-11-07 16:48:00,39.7,16.2,30.06,East,90,7.2,10.1,38,0.00,,---,0.38,VWS V14.01,2013-11-07 21:48:00,
2013-11-07 16:52:00,39.7,16.2,30.06,SSE,158,3.6,10.1,38,0.00,,---,0.38,VWS V14.01,2013-11-07 21:52:00,
2013-11-07 16:57:00,39.9,16.4,30.06,WSW,248,0.0,10.1,38,0.00,,---,0.38,VWS V14.01,2013-11-07 21:57:00,
2013-11-07 17:02:00,39.9,16.4,30.06,SSW,202,3.1,7.2,38,0.00,,---,0.38,VWS V14.01,2013-11-07 22:02:00,
2013-11-07 17:07:00,39.7,16.8,30.06,South,180,0.0,7.2,39,0.00,,---,0.38,VWS V14.01,2013-11-07 22:07:00,
2013-11-07 17:12:00,39.7,16.8,30.06,South,180,9.6,10.1,39,0.00,,---,0.38,VWS V14.01,2013-11-07 22:12:00,
2013-11-07 17:17:00,39.7,15.6,30.06,West,270,7.6,10.1,37,0.00,,---,0.38,VWS V14.01,2013-11-07 22:17:00,
2013-11-07 17:22:00,39.6,13.5,30.06,SW,225,5.8,10.1,34,0.00,,---,0.38,VWS V14.01,2013-11-07 22:22:00,
2013-11-07 17:27:00,39.6,13.5,30.06,West,270,5.4,10.1,34,0.00,,---,0.38,VWS V14.01,2013-11-07 22:27:00,
2013-11-07 17:32:00,39.4,12.7,30.06,NNW,338,7.6,10.1,33,0.00,,---,0.38,VWS V14.01,2013-11-07 22:32:00,
2013-11-07 17:37:00,39.4,12.0,30.06,NW,315,0.0,10.1,32,0.00,,---,0.38,VWS V14.01,2013-11-07 22:37:00,
2013-11-07 17:42:00,39.4,11.3,30.06,SE,135,3.1,10.1,31,0.00,,---,0.38,VWS V14.01,2013-11-07 22:42:00,
2013-11-07 17:47:00,39.4,11.3,30.06,NNW,338,3.1,10.1,31,0.00,,---,0.38,VWS V14.01,2013-11-07 22:47:00,
2013-11-07 17:52:00,39.4,10.5,30.06,SSE,158,4.0,10.1,30,0.00,,---,0.38,VWS V14.01,2013-11-07 22:52:00,
2013-11-07 17:57:00,39.4,9.8,30.06,West,270,8.1,10.1,29,0.00,,---,0.38,VWS V14.01,2013-11-07 22:57:00,
2013-11-07 18:02:00,39.4,9.8,30.06,SSE,158,2.7,5.4,29,0.00,,---,0.38,VWS V14.01,2013-11-07 23:02:00,
2013-11-07 18:07:00,39.4,9.8,30.06,West,270,5.8,5.8,29,0.00,,---,0.38,VWS V14.01,2013-11-07 23:07:00,
2013-11-07 18:12:00,39.2,8.9,30.09,NW,315,2.2,5.8,28,0.00,,---,0.38,VWS V14.01,2013-11-07 23:12:00,
2013-11-07 18:17:00,39.2,8.9,30.09,West,270,4.9,5.8,28,0.00,,---,0.38,VWS V14.01,2013-11-07 23:17:00,
2013-11-07 18:22:00,39.2,9.6,30.09,SW,225,4.0,5.8,29,0.00,,---,0.38,VWS V14.01,2013-11-07 23:22:00,
2013-11-07 18:27:00,39.2,8.9,30.09,South,180,0.0,5.8,28,0.00,,---,0.38,VWS V14.01,2013-11-07 23:27:00,
2013-11-07 18:32:00,39.2,9.6,30.09,SW,225,6.7,8.7,29,0.00,,---,0.38,VWS V14.01,2013-11-07 23:32:00,
2013-11-07 18:37:00,39.4,9.8,30.09,North,0,2.7,8.7,29,0.00,,---,0.38,VWS V14.01,2013-11-07 23:37:00,
2013-11-07 18:42:00,39.4,9.0,30.09,West,270,2.2,8.7,28,0.00,,---,0.38,VWS V14.01,2013-11-07 23:42:00,
2013-11-07 18:47:00,39.4,7.4,30.09,North,0,4.0,8.7,26,0.00,,---,0.38,VWS V14.01,2013-11-07 23:47:00,
2013-11-07 18:52:00,39.4,4.7,30.09,SW,225,9.2,9.6,23,0.00,,---,0.38,VWS V14.01,2013-11-07 23:52:00,
2013-11-07 18:57:00,39.4,4.7,30.09,North,0,5.4,9.6,23,0.00,,---,0.38,VWS V14.01,2013-11-07 23:57:00,
2013-11-07 19:02:00,39.4,4.7,30.09,West,270,5.4,8.3,23,0.00,,---,0.38,VWS V14.01,2013-11-08 00:02:00,
2013-11-07 19:07:00,39.4,4.7,30.09,NW,315,3.6,8.7,23,0.00,,---,0.38,VWS V14.01,2013-11-08 00:07:00,
2013-11-07 19:12:00,39.6,4.8,30.09,SSW,202,4.0,10.1,23,0.00,,---,0.38,VWS V14.01,2013-11-08 00:12:00,
2013-11-07 19:17:00,39.6,4.8,30.09,West,270,4.0,10.1,23,0.00,,---,0.38,VWS V14.01,2013-11-08 00:17:00,
2013-11-07 19:22:00,39.6,4.8,30.09,NW,315,2.7,10.1,23,0.00,,---,0.38,VWS V14.01,2013-11-08 00:22:00,
2013-11-07 19:27:00,39.7,5.0,30.09,NNW,338,3.6,13.2,23,0.00,,---,0.38,VWS V14.01,2013-11-08 00:27:00,
2013-11-07 19:32:00,39.7,5.0,30.09,West,270,4.9,13.2,23,0.00,,---,0.38,VWS V14.01,2013-11-08 00:32:00,
2013-11-07 19:37:00,39.9,5.1,30.09,North,0,3.1,13.2,23,0.00,,---,0.38,VWS V14.01,2013-11-08 00:37:00,
2013-11-07 19:42:00,39.9,5.1,30.09,NW,315,3.6,13.2,23,0.00,,---,0.38,VWS V14.01,2013-11-08 00:42:00,
2013-11-07 19:47:00,39.9,5.1,30.09,WNW,292,5.8,13.2,23,0.00,,---,0.38,VWS V14.01,2013-11-08 00:47:00,
2013-11-07 19:52:00,40.1,5.3,30.09,NNW,338,5.8,13.2,23,0.00,,---,0.38,VWS V14.01,2013-11-08 00:52:00,
2013-11-07 19:57:00,40.1,5.3,30.06,SW,225,2.7,13.2,23,0.00,,---,0.38,VWS V14.01,2013-11-08 00:57:00,
2013-11-07 20:02:00,40.1,8.0,30.06,NW,315,2.7,10.5,26,0.00,,---,0.38,VWS V14.01,2013-11-08 01:02:00,
2013-11-07 20:07:00,40.3,8.1,30.06,NE,45,2.2,10.5,26,0.00,,---,0.38,VWS V14.01,2013-11-08 01:07:00,
2013-11-07 20:12:00,40.3,8.1,30.06,West,270,2.2,10.5,26,0.00,,---,0.38,VWS V14.01,2013-11-08 01:12:00,
2013-11-07 20:17:00,40.5,8.3,30.06,NW,315,3.1,10.5,26,0.00,,---,0.38,VWS V14.01,2013-11-08 01:17:00,
2013-11-07 20:22:00,40.3,8.1,30.06,North,0,0.0,10.5,26,0.00,,---,0.38,VWS V14.01,2013-11-08 01:22:00,
2013-11-07 20:27:00,40.5,9.9,30.06,West,270,3.1,10.5,28,0.00,,---,0.38,VWS V14.01,2013-11-08 01:27:00,
2013-11-07 20:32:00,40.5,9.9,30.06,WNW,292,7.6,10.5,28,0.00,,---,0.38,VWS V14.01,2013-11-08 01:32:00,
2013-11-07 20:37:00,40.5,9.9,30.06,South,180,3.1,10.5,28,0.00,,---,0.38,VWS V14.01,2013-11-08 01:37:00,
2013-11-07 20:42:00,40.6,10.1,30.06,North,0,4.0,10.5,28,0.00,,---,0.38,VWS V14.01,2013-11-08 01:42:00,
2013-11-07 20:47:00,40.6,10.1,30.06,SE,135,4.9,10.5,28,0.00,,---,0.38,VWS V14.01,2013-11-08 01:47:00,
2013-11-07 20:52:00,40.8,10.2,30.06,West,270,0.0,10.5,28,0.00,,---,0.38,VWS V14.01,2013-11-08 01:52:00,
2013-11-07 20:57:00,40.8,10.2,30.06,South,180,4.0,10.5,28,0.00,,---,0.38,VWS V14.01,2013-11-08 01:57:00,
2013-11-07 21:02:00,40.8,10.2,30.06,West,270,3.6,8.1,28,0.00,,---,0.38,VWS V14.01,2013-11-08 02:02:00,
2013-11-07 21:07:00,40.8,10.2,30.06,North,0,3.1,8.1,28,0.00,,---,0.38,VWS V14.01,2013-11-08 02:07:00,
2013-11-07 21:12:00,40.6,10.1,30.06,South,180,0.0,8.1,28,0.00,,---,0.38,VWS V14.01,2013-11-08 02:12:00,
2013-11-07 21:17:00,40.6,10.1,30.06,SW,225,0.0,8.1,28,0.00,,---,0.38,VWS V14.01,2013-11-08 02:17:00,
2013-11-07 21:22:00,40.6,10.9,30.06,SW,225,2.2,8.1,29,0.00,,---,0.38,VWS V14.01,2013-11-08 02:22:00,
2013-11-07 21:27:00,40.8,10.2,30.06,SW,225,0.0,8.1,28,0.00,,---,0.38,VWS V14.01,2013-11-08 02:27:00,
2013-11-07 21:32:00,40.8,10.2,30.06,North,0,2.7,8.1,28,0.00,,---,0.38,VWS V14.01,2013-11-08 02:32:00,
2013-11-07 21:37:00,41.0,10.4,30.06,NW,315,2.2,8.1,28,0.00,,---,0.38,VWS V14.01,2013-11-08 02:37:00,
2013-11-07 21:42:00,41.0,10.4,30.06,NW,315,0.0,8.1,28,0.00,,---,0.38,VWS V14.01,2013-11-08 02:42:00,
2013-11-07 21:47:00,41.0,10.4,30.06,NW,315,2.2,8.1,28,0.00,,---,0.38,VWS V14.01,2013-11-08 02:47:00,
2013-11-07 21:52:00,41.0,10.4,30.06,South,180,2.7,8.1,28,0.00,,---,0.38,VWS V14.01,2013-11-08 02:52:00,
2013-11-07 21:57:00,41.2,10.6,30.06,WSW,248,5.4,8.1,28,0.00,,---,0.00,VWS V14.01,2013-11-08 02:57:00,
2013-11-07 22:02:00,41.2,10.6,30.06,North,0,2.7,8.1,28,0.00,,---,0.38,VWS V14.01,2013-11-08 03:02:00,
2013-11-07 22:07:00,41.0,10.4,30.06,SW,225,0.0,8.1,28,0.00,,---,0.38,VWS V14.01,2013-11-08 03:07:00,
2013-11-07 22:12:00,41.2,10.6,30.03,WNW,292,3.1,8.1,28,0.00,,---,0.38,VWS V14.01,2013-11-08 03:12:00,
2013-11-07 22:17:00,41.5,10.9,30.03,North,0,0.0,8.3,28,0.00,,---,0.38,VWS V14.01,2013-11-08 03:17:00,
2013-11-07 22:22:00,41.4,10.7,30.03,West,270,3.1,8.3,28,0.00,,---,0.38,VWS V14.01,2013-11-08 03:22:00,
2013-11-07 22:27:00,41.2,10.6,30.03,West,270,3.6,8.3,28,0.00,,---,0.38,VWS V14.01,2013-11-08 03:27:00,
2013-11-07 22:32:00,41.2,11.4,30.03,South,180,0.0,8.3,29,0.00,,---,0.38,VWS V14.01,2013-11-08 03:32:00,
2013-11-07 22:37:00,41.2,10.6,30.03,South,180,6.3,8.3,28,0.00,,---,0.38,VWS V14.01,2013-11-08 03:37:00,
2013-11-07 22:42:00,41.4,10.7,30.03,NW,315,0.0,8.3,28,0.00,,---,0.38,VWS V14.01,2013-11-08 03:42:00,
2013-11-07 22:47:00,41.4,10.7,30.03,WSW,248,2.2,8.3,28,0.00,,---,0.38,VWS V14.01,2013-11-08 03:47:00,
2013-11-07 22:52:00,41.4,10.7,30.03,South,180,2.7,8.3,28,0.00,,---,0.38,VWS V14.01,2013-11-08 03:52:00,
2013-11-07 22:57:00,41.4,11.5,30.03,South,180,3.6,8.3,29,0.00,,---,0.38,VWS V14.01,2013-11-08 03:57:00,
2013-11-07 23:02:00,41.0,11.2,30.03,West,270,7.2,8.1,29,0.00,,---,0.38,VWS V14.01,2013-11-08 04:02:00,
2013-11-07 23:07:00,40.8,11.8,30.03,SW,225,6.3,8.1,30,0.00,,---,0.38,VWS V14.01,2013-11-08 04:07:00,
2013-11-07 23:12:00,40.6,12.4,30.03,East,90,3.1,8.1,31,0.00,,---,0.38,VWS V14.01,2013-11-08 04:12:00,
2013-11-07 23:17:00,40.3,12.1,30.03,SW,225,0.0,8.1,31,0.00,,---,0.38,VWS V14.01,2013-11-08 04:17:00,
2013-11-07 23:22:00,39.9,12.5,30.03,SW,225,0.0,8.1,32,0.00,,---,0.38,VWS V14.01,2013-11-08 04:22:00,
2013-11-07 23:27:00,39.7,13.0,30.03,SW,225,2.7,8.1,33,0.00,,---,0.38,VWS V14.01,2013-11-08 04:27:00,
2013-11-07 23:32:00,39.4,15.3,30.03,NW,315,3.6,8.1,37,0.00,,---,0.38,VWS V14.01,2013-11-08 04:32:00,
2013-11-07 23:37:00,38.7,16.4,30.03,West,270,4.0,8.1,40,0.00,,---,0.38,VWS V14.01,2013-11-08 04:37:00,
2013-11-07 23:42:00,38.3,17.2,30.03,NW,315,0.0,8.1,42,0.00,,---,0.38,VWS V14.01,2013-11-08 04:42:00,
2013-11-07 23:47:00,37.9,18.5,30.03,NW,315,0.0,8.1,45,0.00,,---,0.38,VWS V14.01,2013-11-08 04:47:00,
2013-11-07 23:52:00,37.8,20.3,30.03,West,270,2.2,8.1,49,0.00,,---,0.38,VWS V14.01,2013-11-08 04:52:00,
2013-11-07 23:57:00,37.6,20.6,30.03,SW,225,0.0,8.1,50,0.00,,---,0.38,VWS V14.01,2013-11-08 04:57:00,